EW7912 Weather Reports


Display with metric or nautical units.
time (UTC)temp
F
wind
direction
speed
MPH
gust
MPH
rain 1hr
in
rain 24hr
in
rain mn
in
humidity
%
barometer
mb
20200223235404 56 140 2.0 10.0 0.00 0.04 0.04 93 1014.8
20200223234904 56 137 3.0 10.0 0.00 0.04 0.04 93 1015.0
20200223234404 56 180 3.0 7.0 0.00 0.04 0.04 93 1015.0
20200223233904 56 167 2.0 10.0 0.00 0.04 0.04 93 1015.2
20200223233404 56 178 3.0 11.0 0.00 0.04 0.04 93 1015.1
20200223232858 56 149 2.0 11.0 0.00 0.04 0.04 93 1015.0
20200223232358 56 163 2.0 6.0 0.00 0.04 0.04 93 1015.1
20200223231859 56 182 1.0 5.0 0.00 0.04 0.04 93 1015.4
20200223231358 56 126 1.0 5.0 0.00 0.04 0.04 93 1015.5
20200223230858 55 146 1.0 7.0 0.00 0.04 0.04 93 1015.6
20200223230359 55 219 2.0 7.0 0.00 0.04 0.04 93 1015.4
20200223225854 55 159 2.0 7.0 0.00 0.04 0.04 93 1015.3
20200223225354 55 146 3.0 10.0 0.00 0.04 0.04 93 1015.3
20200223224852 55 146 3.0 10.0 0.00 0.04 0.04 93 1015.0
20200223224352 55 157 2.0 7.0 0.00 0.04 0.04 93 1014.9
20200223223852 55 182 2.0 7.0 0.00 0.04 0.04 93 1014.9
20200223223353 55 30 2.0 7.0 0.00 0.04 0.04 93 1015.0
20200223222848 55 152 2.0 7.0 0.00 0.04 0.04 93 1015.2
20200223222348 55 129 2.0 5.0 0.00 0.04 0.04 93 1015.2
20200223221846 55 158 3.0 7.0 0.00 0.04 0.04 93 1015.1
20200223221346 55 119 2.0 7.0 0.00 0.04 0.04 93 1015.4
20200223220846 55 144 2.0 6.0 0.00 0.04 0.04 93 1015.6
20200223220346 55 96 2.0 6.0 0.00 0.04 0.04 93 1015.7
20200223215842 55 102 2.0 6.0 0.00 0.04 0.04 93 1015.7
20200223215342 55 77 2.0 5.0 0.00 0.04 0.04 93 1015.8
20200223214842 55 191 2.0 7.0 0.00 0.04 0.04 93 1015.8
20200223214342 55 133 2.0 7.0 0.00 0.04 0.04 93 1015.7
20200223213840 55 82 2.0 8.0 0.00 0.04 0.04 93 1015.6
20200223213340 55 158 2.0 8.0 0.00 0.04 0.04 93 1015.6
20200223212834 55 168 2.0 7.0 0.00 0.04 0.04 93 1015.9
20200223212334 54 126 2.0 7.0 0.00 0.04 0.04 93 1016.0
20200223211834 55 180 2.0 7.0 0.00 0.04 0.04 93 1015.9
20200223211334 54 99 2.0 7.0 0.00 0.04 0.04 93 1016.1
20200223210832 54 165 2.0 6.0 0.00 0.04 0.04 93 1016.1
20200223210332 54 130 2.0 6.0 0.00 0.04 0.04 93 1016.2
20200223205828 54 167 1.0 5.0 0.00 0.04 0.04 93 1016.1
20200223205328 54 67 1.0 6.0 0.01 0.04 0.04 93 1016.2
20200223204828 54 183 2.0 6.0 0.01 0.04 0.04 93 1016.1
20200223204328 54 163 1.0 6.0 0.01 0.04 0.04 93 1016.1
20200223203826 54 144 1.0 4.0 0.01 0.04 0.04 93 1016.3
20200223203329 54 150 2.0 5.0 0.01 0.04 0.04 93 1016.6
20200223202821 54 131 2.0 5.0 0.01 0.04 0.04 93 1016.5
20200223202322 54 90 2.0 5.0 0.02 0.04 0.04 93 1016.7
20200223201821 54 153 2.0 6.0 0.02 0.04 0.04 93 1016.6
20200223201320 54 96 1.0 6.0 0.02 0.04 0.04 93 1016.6
20200223200820 53 169 1.0 6.0 0.02 0.04 0.04 93 1016.8
20200223200320 53 167 1.0 6.0 0.02 0.04 0.04 93 1016.9
20200223195814 53 117 2.0 5.0 0.02 0.04 0.04 93 1017.0
20200223195312 53 169 2.0 5.0 0.02 0.03 0.03 93 1017.0
20200223194812 53 170 2.0 6.0 0.02 0.03 0.03 93 1017.0
20200223194312 53 165 1.0 6.0 0.02 0.03 0.03 93 1017.3
20200223193812 53 111 1.0 4.0 0.02 0.03 0.03 93 1017.4
20200223193313 53 128 1.0 4.0 0.02 0.03 0.03 93 1017.5
20200223192806 53 165 1.0 4.0 0.02 0.03 0.03 93 1017.8
20200223192306 53 156 1.0 4.0 0.01 0.02 0.03 93 1017.8
20200223191806 53 176 1.0 3.0 0.01 0.02 0.02 93 1017.9
20200223191307 53 111 1.0 3.0 0.01 0.02 0.02 93 1018.1
20200223190805 53 122 1.0 3.0 0.01 0.02 0.02 93 1018.2
20200223190304 52 147 1.0 4.0 0.01 0.02 0.02 93 1018.3
20200223185805 52 159 1.0 5.0 0.01 0.02 0.02 93 1018.3
20200223185304 52 157 1.0 5.0 0.00 0.01 0.01 93 1018.4
20200223184804 52 140 1.0 2.0 0.00 0.01 0.01 92 1018.4
20200223184304 52 141 1.0 4.0 0.01 0.01 0.01 93 1018.5
20200223183800 52 154 2.0 5.0 0.01 0.01 0.01 93 1018.4
20200223183259 52 125 2.0 5.0 0.01 0.01 0.01 93 1018.4
20200223182800 52 117 1.0 3.0 0.01 0.01 0.01 92 1018.6
20200223182259 51 98 1.0 3.0 0.01 0.01 0.01 92 1018.9
20200223181759 51 99 1.0 3.0 0.01 0.01 0.01 93 1019.1
20200223181300 51 105 1.0 3.0 0.01 0.01 0.01 92 1019.1
20200223180756 51 113 1.0 3.0 0.01 0.01 0.01 92 1019.2
20200223180256 51 97 1.0 2.0 0.01 0.01 0.01 92 1019.0
20200223175756 51 121 1.0 2.0 0.01 0.01 0.01 92 1019.2
20200223175255 51 131 1.0 4.0 0.01 0.01 0.01 92 1019.4
20200223174755 51 148 1.0 5.0 0.01 0.01 0.01 92 1019.2
20200223174256 51 162 1.0 6.0 0.00 0.00 0.00 92 1019.1
20200223173752 51 159 1.0 6.0 0.00 0.00 0.00 92 1019.3
20200223173252 50 107 1.0 4.0 0.00 0.00 0.00 92 1019.6
20200223172752 50 166 1.0 4.0 0.00 0.00 0.00 92 1019.8
20200223172252 50 156 1.0 5.0 0.00 0.00 0.00 92 1019.7
20200223171751 50 155 1.0 5.0 0.00 0.00 0.00 92 1019.8
20200223171252 50 171 1.0 4.0 0.00 0.00 0.00 92 1019.6
20200223170751 50 130 1.0 2.0 0.00 0.00 0.00 92 1020.1
20200223170251 50 132 1.0 3.0 0.00 0.00 0.00 91 1020.0
20200223165752 50 132 1.0 3.0 0.00 0.00 0.00 91 1019.8
20200223165252 49 180 1.0 5.0 0.00 0.00 0.00 91 1019.8
20200223164752 49 101 1.0 5.0 0.00 0.00 0.00 91 1019.6
20200223164250 49 79 1.0 3.0 0.00 0.00 0.00 91 1019.7
20200223163749 49 80 1.0 3.0 0.00 0.00 0.00 91 1019.8
20200223163250 49 163 1.0 3.0 0.00 0.00 0.00 91 1020.1
20200223162748 49 115 1.0 3.0 0.00 0.00 0.00 90 1020.2
20200223162249 49 137 1.0 3.0 0.00 0.00 0.00 90 1020.3
20200223161744 49 142 1.0 4.0 0.00 0.00 0.00 89 1020.2
20200223161243 49 141 1.0 4.0 0.00 0.00 0.00 89 1020.3
20200223160743 49 108 1.0 4.0 0.00 0.00 0.00 88 1020.3
20200223160244 49 124 1.0 4.0 0.00 0.00 0.00 88 1020.5
20200223155744 49 112 1.0 3.0 0.00 0.00 0.00 88 1020.8
20200223155243 49 112 1.0 3.0 0.00 0.00 0.00 87 1021.0
20200223154743 49 114 1.0 3.0 0.00 0.00 0.00 87 1020.7
20200223154240 49 112 1.0 3.0 0.00 0.00 0.00 87 1020.5
20200223153739 49 66 1.0 3.0 0.00 0.00 0.00 87 1020.2
20200223153239 49 246 1.0 4.0 0.00 0.00 0.00 87 1020.0
20200223152739 48 253 1.0 4.0 0.00 0.00 0.00 87 1020.0
20200223152239 48 116 1.0 5.0 0.00 0.00 0.00 87 1020.2
20200223151739 48 87 2.0 7.0 0.00 0.00 0.00 86 1020.0
20200223151241 48 160 2.0 7.0 0.00 0.00 0.00 86 1020.0
20200223150737 48 164 2.0 5.0 0.00 0.00 0.00 85 1019.7
20200223150236 47 164 2.0 5.0 0.00 0.00 0.00 85 1020.0
20200223145735 47 87 1.0 5.0 0.00 0.00 0.00 85 1020.0
20200223145235 47 136 1.0 3.0 0.00 0.00 0.00 85 1020.1
20200223144733 47 103 1.0 3.0 0.00 0.00 0.00 85 1020.1
20200223144234 47 154 1.0 3.0 0.00 0.00 0.00 85 1020.0
20200223143727 47 84 1.0 3.0 0.00 0.00 0.00 85 1020.1
20200223143227 47 84 1.0 3.0 0.00 0.00 0.00 85 1019.9
20200223142728 47 158 1.0 3.0 0.00 0.00 0.00 85 1019.8
20200223142227 46 107 1.0 3.0 0.00 0.00 0.00 85 1019.7
20200223141728 46 105 1.0 2.0 0.00 0.00 0.00 85 1019.7
20200223141227 46 94 1.0 3.0 0.00 0.00 0.00 85 1019.7
20200223140725 46 94 1.0 3.0 0.00 0.00 0.00 85 1020.0
20200223140225 46 98 1.0 3.0 0.00 0.00 0.00 86 1020.0
20200223135725 46 99 1.0 2.0 0.00 0.00 0.00 86 1019.9
20200223135223 46 99 1.0 2.0 0.00 0.00 0.00 86 1019.9
20200223134721 46 99 1.0 2.0 0.00 0.00 0.00 86 1019.8
20200223134222 45 98 1.0 2.0 0.00 0.00 0.00 86 1019.9
20200223133717 45 98 1.0 2.0 0.00 0.00 0.00 86 1020.0
20200223133217 45 98 1.0 2.0 0.00 0.00 0.00 86 1019.8
20200223132716 45 98 1.0 2.0 0.00 0.00 0.00 86 1020.0
20200223132215 45 98 1.0 3.0 0.00 0.00 0.00 86 1020.0
20200223131715 45 98 1.0 3.0 0.00 0.00 0.00 86 1019.8
20200223131216 45 98 1.0 2.0 0.00 0.00 0.00 86 1019.8
20200223130711 45 98 1.0 2.0 0.00 0.00 0.00 86 1019.7
20200223130211 45 98 1.0 3.0 0.00 0.00 0.00 86 1019.8
20200223125711 44 98 1.0 3.0 0.00 0.00 0.00 87 1019.9
20200223125211 44 98 1.0 3.0 0.00 0.00 0.00 87 1019.8
20200223124709 44 122 1.0 3.0 0.00 0.00 0.00 87 1019.7
20200223124208 44 122 1.0 3.0 0.00 0.00 0.00 87 1019.7
20200223123707 44 136 1.0 2.0 0.00 0.00 0.00 87 1019.8
20200223123205 44 136 1.0 2.0 0.00 0.00 0.00 87 1019.8
20200223122705 43 136 1.0 2.0 0.00 0.00 0.00 88 1019.8
20200223122205 43 136 1.0 2.0 0.00 0.00 0.00 88 1019.8
20200223121703 43 136 1.0 2.0 0.00 0.00 0.00 88 1019.7
20200223121204 43 136 1.0 2.0 0.00 0.00 0.00 88 1019.8
20200223120701 43 136 1.0 2.0 0.00 0.00 0.00 88 1019.8
20200223120200 43 136 1.0 2.0 0.00 0.00 0.00 88 1019.7
20200223115658 42 150 1.0 2.0 0.00 0.00 0.00 88 1019.8
20200223115157 42 150 1.0 3.0 0.00 0.00 0.00 88 1020.0
20200223114657 42 150 0.0 3.0 0.00 0.00 0.00 88 1020.0
20200223114158 42 150 0.0 2.0 0.00 0.00 0.00 88 1020.0
20200223113651 42 150 0.0 0.0 0.00 0.00 0.00 87 1020.2
20200223113149 42 150 0.0 0.0 0.00 0.00 0.00 87 1020.1
20200223112647 42 150 0.0 0.0 0.00 0.00 0.00 87 1020.3
20200223112145 42 150 0.0 0.0 0.00 0.00 0.00 87 1020.2
20200223111646 42 150 0.0 1.0 0.00 0.00 0.00 87 1020.2
20200223111141 42 150 0.0 1.0 0.00 0.00 0.00 87 1019.9
20200223110641 42 150 0.0 1.0 0.00 0.00 0.00 87 1020.0
20200223110141 42 150 0.0 1.0 0.00 0.00 0.00 87 1020.1
20200223105641 43 150 0.0 1.0 0.00 0.00 0.00 86 1020.0
20200223105139 43 150 0.0 2.0 0.00 0.00 0.00 86 1020.0
20200223104639 43 150 0.0 2.0 0.00 0.00 0.00 85 1020.0
20200223104133 44 150 0.0 0.0 0.00 0.00 0.00 85 1020.0
20200223103631 44 150 0.0 0.0 0.00 0.00 0.00 85 1020.1
20200223103130 44 150 0.0 2.0 0.00 0.00 0.00 84 1020.3
20200223102627 44 150 0.0 2.0 0.00 0.00 0.00 84 1020.2
20200223102127 44 150 0.0 2.0 0.00 0.00 0.00 84 1020.6
20200223101625 45 150 0.0 0.0 0.00 0.00 0.00 83 1020.8
20200223101125 45 150 0.0 0.0 0.00 0.00 0.00 83 1020.7
20200223100625 46 150 0.0 1.0 0.00 0.00 0.00 81 1020.7
20200223100123 46 150 0.0 2.0 0.00 0.00 0.00 81 1020.6
20200223095621 47 150 0.0 2.0 0.00 0.00 0.00 81 1020.6
20200223095122 47 150 0.0 1.0 0.00 0.00 0.00 81 1020.8
20200223094617 46 150 1.0 2.0 0.00 0.00 0.00 81 1020.7
20200223094117 47 150 1.0 2.0 0.00 0.00 0.00 81 1020.6
20200223093617 47 162 0.0 2.0 0.00 0.00 0.00 80 1020.6
20200223093116 47 163 0.0 2.0 0.00 0.00 0.00 79 1020.8
20200223092615 47 163 0.0 2.0 0.00 0.00 0.00 80 1020.9
20200223092116 47 163 0.0 2.0 0.00 0.00 0.00 79 1021.0
20200223091609 47 196 0.0 0.0 0.00 0.00 0.00 80 1020.9
20200223091106 47 196 0.0 1.0 0.00 0.00 0.00 79 1020.9
20200223090606 47 196 0.0 2.0 0.00 0.00 0.00 79 1021.1
20200223090104 48 196 0.0 2.0 0.00 0.00 0.00 79 1021.5
20200223085607 48 215 0.0 2.0 0.00 0.00 0.00 79 1021.5
20200223085058 48 215 0.0 4.0 0.00 0.00 0.00 78 1021.6
20200223084555 48 265 1.0 4.0 0.00 0.00 0.00 78 1021.6
20200223084055 48 288 0.0 2.0 0.00 0.00 0.00 78 1021.8
20200223083602 48 288 0.0 3.0 0.00 0.00 0.00 78 1021.7
20200223083057 48 288 1.0 3.0 0.00 0.00 0.00 78 1021.5
20200223082555 48 230 0.0 3.0 0.00 0.00 0.00 78 1021.4
20200223082049 48 229 0.0 2.0 0.00 0.00 0.00 77 1021.4
20200223081547 48 304 1.0 5.0 0.00 0.00 0.00 77 1021.6
20200223081046 48 304 1.0 5.0 0.00 0.00 0.00 77 1021.4
20200223080547 48 194 1.0 5.0 0.00 0.00 0.00 77 1021.3
20200223080047 48 117 1.0 5.0 0.00 0.00 0.00 77 1021.3
20200223075547 48 209 1.0 5.0 0.00 0.00 0.00 76 1021.4
20200223075045 48 219 1.0 4.0 0.00 0.00 0.00 76 1021.4
20200223074539 48 171 1.0 8.0 0.00 0.00 0.00 76 1021.8
20200223074039 48 219 1.0 8.0 0.00 0.00 0.00 75 1021.9
20200223073533 48 259 1.0 3.0 0.00 0.00 0.00 75 1022.1
20200223073032 48 199 1.0 3.0 0.00 0.00 0.00 75 1022.2
20200223072533 48 84 1.0 4.0 0.00 0.00 0.00 74 1022.3
20200223072032 49 257 1.0 4.0 0.00 0.00 0.00 74 1022.4
20200223071533 49 207 1.0 6.0 0.00 0.00 0.00 74 1022.4
20200223071032 48 280 1.0 6.0 0.00 0.00 0.00 75 1022.5
20200223070529 48 151 1.0 7.0 0.00 0.00 0.00 74 1022.3
20200223070028 48 194 1.0 7.0 0.00 0.00 0.00 74 1022.5
20200223065529 48 165 1.0 4.0 0.00 0.00 0.00 74 1022.5
20200223065029 48 146 1.0 5.0 0.00 0.00 0.00 73 1022.6
20200223064529 48 159 1.0 5.0 0.00 0.00 0.00 73 1022.8
20200223064029 48 88 1.0 4.0 0.00 0.00 0.00 73 1022.7
20200223063525 48 180 1.0 4.0 0.00 0.00 0.00 72 1022.8
20200223063025 47 155 1.0 3.0 0.00 0.00 0.00 72 1023.1
20200223062526 47 122 0.0 2.0 0.00 0.00 0.00 74 1023.1
20200223062024 46 107 1.0 2.0 0.00 0.00 0.00 74 1023.0
20200223061532 45 114 1.0 3.0 0.00 0.00 0.00 76 1023.0
20200223061032 44 114 1.0 3.0 0.00 0.00 0.00 77 1023.0
20200223060528 44 114 1.0 3.0 0.00 0.00 0.00 78 1023.0
20200223060024 44 115 1.0 3.0 0.00 0.00 0.00 78 1023.2
20200223055524 44 115 0.0 2.0 0.00 0.00 0.00 77 1023.2
20200223055020 44 115 0.0 2.0 0.00 0.00 0.00 76 1023.2
20200223054521 44 115 1.0 3.0 0.00 0.00 0.00 76 1023.3
20200223054021 44 115 1.0 3.0 0.00 0.00 0.00 75 1022.9
20200223053517 45 115 0.0 3.0 0.00 0.00 0.00 75 1022.8
20200223053017 45 124 0.0 0.0 0.00 0.00 0.00 75 1022.9
20200223052517 45 124 0.0 0.0 0.00 0.00 0.00 75 1022.8
20200223052017 45 124 0.0 0.0 0.00 0.00 0.00 73 1022.9
20200223051516 46 124 0.0 0.0 0.00 0.00 0.00 72 1022.7
20200223051017 46 124 0.0 0.0 0.00 0.00 0.00 71 1022.8
20200223050510 46 124 0.0 0.0 0.00 0.00 0.00 71 1022.8
20200223050011 47 124 0.0 0.0 0.00 0.00 0.00 72 1023.0
20200223045516 46 124 0.0 0.0 0.00 0.00 0.00 72 1023.1
20200223045007 46 124 0.0 0.0 0.00 0.00 0.00 73 1023.2
20200223044506 45 124 0.0 2.0 0.00 0.00 0.00 73 1023.1
20200223044007 45 124 1.0 3.0 0.00 0.00 0.00 74 1023.0
20200223043500 46 124 2.0 6.0 0.00 0.00 0.00 73 1023.2
20200223043000 46 130 2.0 6.0 0.00 0.00 0.00 72 1023.1
20200223042500 45 95 2.0 4.0 0.00 0.00 0.00 73 1023.2
20200223041957 45 100 2.0 4.0 0.00 0.00 0.00 74 1023.1
20200223041458 45 111 2.0 4.0 0.00 0.00 0.00 74 1023.1
20200223040956 44 91 2.0 3.0 0.00 0.00 0.00 76 1023.0
20200223040456 44 93 2.0 6.0 0.00 0.00 0.00 76 1023.2
20200223035954 45 107 1.0 6.0 0.00 0.00 0.00 75 1023.1
20200223035453 44 109 1.0 3.0 0.00 0.00 0.00 77 1023.4
20200223034954 43 157 0.0 0.0 0.00 0.00 0.00 79 1023.3
20200223034453 43 157 0.0 0.0 0.00 0.00 0.00 79 1023.5
20200223033952 43 157 0.0 0.0 0.00 0.00 0.00 80 1023.3
20200223033446 43 157 0.0 0.0 0.00 0.00 0.00 80 1023.3
20200223032946 43 157 0.0 0.0 0.00 0.00 0.00 80 1023.2
20200223032446 43 157 0.0 0.0 0.00 0.00 0.00 80 1023.3
20200223031946 44 157 0.0 0.0 0.00 0.00 0.00 79 1023.3
20200223031444 44 157 0.0 0.0 0.00 0.00 0.00 78 1023.4
20200223030942 44 157 0.0 0.0 0.00 0.00 0.00 80 1023.6
20200223030441 44 157 0.0 0.0 0.00 0.00 0.00 80 1023.7
20200223025939 44 157 0.0 0.0 0.00 0.00 0.00 80 1023.7
20200223025439 44 157 0.0 0.0 0.00 0.00 0.00 79 1023.4
20200223024939 45 157 0.0 0.0 0.00 0.00 0.00 78 1023.4
20200223024437 44 157 0.0 0.0 0.00 0.00 0.00 78 1023.5
20200223023938 45 157 0.0 0.0 0.00 0.00 0.00 77 1023.5
20200223023436 45 157 0.0 0.0 0.00 0.00 0.00 77 1023.6
20200223022934 45 157 0.0 0.0 0.00 0.00 0.00 76 1023.8
20200223022433 46 157 0.0 0.0 0.00 0.00 0.00 74 1023.7
20200223021934 46 157 0.0 0.0 0.00 0.00 0.00 73 1023.8
20200223021432 46 157 0.0 0.0 0.00 0.00 0.00 73 1023.7
20200223020932 46 157 0.0 0.0 0.00 0.00 0.00 75 1023.9
20200223020429 46 157 0.0 0.0 0.00 0.00 0.00 73 1024.0
20200223015929 47 157 0.0 0.0 0.00 0.00 0.00 72 1023.7
20200223015430 47 157 0.0 0.0 0.00 0.00 0.00 70 1023.8
20200223014928 47 157 0.0 0.0 0.00 0.00 0.00 70 1023.8
20200223014426 47 157 0.0 0.0 0.00 0.00 0.00 71 1023.8
20200223013925 47 157 0.0 0.0 0.00 0.00 0.00 69 1023.8
20200223013424 47 157 0.0 0.0 0.00 0.00 0.00 68 1023.8
20200223013419 47 157 0.0 0.0 0.00 0.00 0.00 69 1023.9
20200223012416 48 157 0.0 0.0 0.00 0.00 0.00 67 1023.6
20200223011914 48 157 0.0 0.0 0.00 0.00 0.00 67 1023.6
20200223011412 48 157 0.0 0.0 0.00 0.00 0.00 67 1023.6
20200223010910 49 157 0.0 0.0 0.00 0.00 0.00 65 1023.6
20200223010409 49 157 0.0 1.0 0.00 0.00 0.00 64 1023.5
20200223005909 49 157 0.0 1.0 0.00 0.00 0.00 64 1023.4
20200223005408 50 157 0.0 2.0 0.00 0.00 0.00 61 1023.6
20200223004908 50 157 0.0 2.0 0.00 0.00 0.00 61 1023.5
20200223004408 50 157 1.0 2.0 0.00 0.00 0.00 62 1023.4
20200223003905 51 157 1.0 2.0 0.00 0.00 0.00 60 1023.2
20200223003635 51 145 0.0 1.0 0.00 0.00 0.00 61 1023.4
20200223002901 51 145 0.0 1.0 0.00 0.00 0.00 60 1023.5
20200223002634 51 145 1.0 2.0 0.00 0.00 0.00 59 1023.3
20200223001901 52 145 1.0 4.0 0.00 0.00 0.00 56 1023.3
20200223001403 53 165 2.0 7.0 0.00 0.00 0.00 54 1023.3
20200223000858 53 159 2.0 7.0 0.00 0.00 0.00 54 1023.3
20200223000357 53 154 2.0 6.0 0.00 0.00 0.00 54 1023.3
20200222235855 54 250 2.0 7.0 0.00 0.00 0.00 52 1023.3